W7YP Weather Reports


Display with metric or nautical units.
time (UTC)temp
F
wind
direction
speed
MPH
gust
MPH
rain 1hr
in
rain 24hr
in
rain mn
in
humidity
%
barometer
mb
20260505193140 56 69 2.0 11.0 0.00 0.00 0.00 37 1018.7
20260505192635 55 101 1.0 11.0 0.00 0.00 0.00 40 1018.7
20260505192130 55 111 2.0 12.0 0.00 0.00 0.00 36 1018.7
20260505191630 55 128 5.0 12.0 0.00 0.00 0.00 36 1018.8
20260505191126 55 146 1.0 11.0 0.00 0.00 0.00 38 1018.7
20260505190625 55 76 4.0 11.0 0.00 0.00 0.00 37 1018.8
20260505190349 55 75 2.0 8.0 0.00 0.00 0.00 37 1018.7
20260505185845 55 41 1.0 10.0 0.00 0.00 0.00 40 1018.7
20260505185718 55 147 3.0 7.0 0.00 0.00 0.00 37 1018.7
20260505184627 55 75 2.0 10.0 0.00 0.00 0.00 39 1018.7
20260505184126 55 318 1.0 11.0 0.00 0.00 0.00 39 1018.8
20260505183622 54 150 3.0 11.0 0.00 0.00 0.00 37 1018.8
20260505183117 54 74 3.0 9.0 0.00 0.00 0.00 40 1018.8
20260505182618 54 103 2.0 8.0 0.00 0.00 0.00 38 1018.8
20260505182338 53 250 1.0 8.0 0.00 0.00 0.00 40 1018.8
20260505181613 53 136 2.0 10.0 0.00 0.00 0.00 41 1018.9
20260505181115 53 169 2.0 12.0 0.00 0.00 0.00 42 1018.9
20260505180613 53 114 6.0 12.0 0.00 0.00 0.00 41 1018.9
20260505180108 51 107 3.0 8.0 0.00 0.00 0.00 45 1018.9
20260505175603 51 321 3.0 11.0 0.00 0.00 0.00 43 1018.8
20260505175102 51 342 1.0 11.0 0.00 0.00 0.00 44 1018.8
20260505174822 51 107 1.0 9.0 0.00 0.00 0.00 41 1018.9
20260505174103 51 98 1.0 9.0 0.00 0.00 0.00 43 1018.8
20260505173603 51 132 3.0 9.0 0.00 0.00 0.00 43 1018.8
20260505173103 51 101 3.0 9.0 0.00 0.00 0.00 43 1018.8
20260505172824 51 351 1.0 9.0 0.00 0.00 0.00 44 1018.8
20260505172314 52 37 2.0 7.0 0.00 0.00 0.00 43 1018.7
20260505171554 52 330 1.0 7.0 0.00 0.00 0.00 42 1018.7
20260505171326 53 71 1.0 4.0 0.00 0.00 0.00 41 1018.7
20260505170554 53 71 1.0 5.0 0.00 0.00 0.00 42 1018.7
20260505170050 53 125 2.0 5.0 0.00 0.00 0.00 41 1018.6
20260505165544 53 96 1.0 9.0 0.00 0.00 0.00 42 1018.8
20260505165047 52 60 2.0 9.0 0.00 0.00 0.00 42 1018.8
20260505164547 52 5 3.0 8.0 0.00 0.00 0.00 42 1018.8
20260505164046 52 161 0.0 7.0 0.00 0.00 0.00 44 1018.7
20260505163545 52 350 2.0 7.0 0.00 0.00 0.00 44 1018.7
20260505163040 52 152 0.0 7.0 0.00 0.00 0.00 44 1018.8
20260505162535 52 105 2.0 4.0 0.00 0.00 0.00 43 1018.7
20260505162035 51 111 1.0 6.0 0.00 0.00 0.00 45 1018.7
20260505161536 51 47 0.0 10.0 0.00 0.00 0.00 45 1018.7
20260505161036 51 109 3.0 10.0 0.00 0.00 0.00 43 1018.7
20260505160536 51 319 1.0 7.0 0.00 0.00 0.00 46 1018.6
20260505153012 48 107 2.0 8.0 0.00 0.00 0.00 48 1018.9
20260505152508 48 117 2.0 8.0 0.00 0.00 0.00 48 1018.9
20260505152003 48 310 1.0 7.0 0.00 0.00 0.00 47 1018.9
20260505151503 48 115 1.0 8.0 0.00 0.00 0.00 50 1018.9
20260505151002 48 99 1.0 9.0 0.00 0.00 0.00 48 1018.9
20260505150502 48 98 2.0 9.0 0.00 0.00 0.00 49 1018.9
20260505140424 42 137 0.0 3.0 0.00 0.00 0.00 63 1018.5
20260505124851 32 91 0.0 1.0 0.00 0.00 0.00 85 1017.9
20260505124351 32 91 0.0 0.0 0.00 0.00 0.00 85 1017.8
20260505123847 32 91 0.0 0.0 0.00 0.00 0.00 85 1017.9
20260505123342 32 91 0.0 0.0 0.00 0.00 0.00 84 1017.8
20260505122841 32 91 0.0 0.0 0.00 0.00 0.00 84 1017.8
20260505122343 32 91 0.0 0.0 0.00 0.00 0.00 84 1017.7
20260505121832 32 91 0.0 0.0 0.00 0.00 0.00 84 1017.7
20260505121551 32 91 0.0 2.0 0.00 0.00 0.00 84 1017.6
20260505120827 32 91 0.0 2.0 0.00 0.00 0.00 84 1017.6
20260505120322 32 91 0.0 0.0 0.00 0.00 0.00 84 1017.5
20260505115812 32 91 0.0 0.0 0.00 0.00 0.00 84 1017.5
20260505115307 33 91 0.0 0.0 0.00 0.00 0.00 84 1017.6
20260505114809 33 91 0.0 0.0 0.00 0.00 0.00 84 1017.5
20260505114311 33 91 0.0 0.0 0.00 0.00 0.00 83 1017.5
20260505114028 33 91 0.0 0.0 0.00 0.00 0.00 83 1017.6
20260505113303 33 91 0.0 0.0 0.00 0.00 0.00 83 1017.6
20260505112806 33 91 0.0 0.0 0.00 0.00 0.00 83 1017.5
20260505112243 33 91 0.0 0.0 0.00 0.00 0.00 83 1017.5
20260505111743 33 91 0.0 1.0 0.00 0.00 0.00 83 1017.5
20260505111239 33 91 0.0 1.0 0.00 0.00 0.00 83 1017.5
20260505110739 33 91 0.0 0.0 0.00 0.00 0.00 83 1017.5
20260505110242 33 91 0.0 0.0 0.00 0.00 0.00 83 1017.5
20260505102210 34 91 0.0 0.0 0.00 0.00 0.00 82 1017.5
20260505101655 34 91 0.0 0.0 0.00 0.00 0.00 82 1017.4
20260505101405 34 91 0.0 0.0 0.00 0.00 0.00 82 1017.4
20260505100645 35 91 0.0 0.0 0.00 0.00 0.00 81 1017.4
20260505100145 35 91 0.0 0.0 0.00 0.00 0.00 81 1017.4
20260505095901 35 91 0.0 0.0 0.00 0.00 0.00 80 1017.4
20260505095139 35 91 0.0 0.0 0.00 0.00 0.00 79 1017.4
20260505094624 36 91 0.0 0.0 0.00 0.00 0.00 79 1017.4
20260505094122 36 91 0.0 1.0 0.00 0.00 0.00 79 1017.3
20260505093613 36 91 0.0 1.0 0.00 0.00 0.00 79 1017.2
20260505093106 36 91 0.0 0.0 0.00 0.00 0.00 79 1017.0
20260505092830 36 91 0.0 0.0 0.00 0.00 0.00 79 1017.2
20260505092057 37 91 0.0 0.0 0.00 0.00 0.00 79 1017.2
20260505091824 37 91 0.0 0.0 0.00 0.00 0.00 79 1017.3
20260505091057 37 91 0.0 0.0 0.00 0.00 0.00 79 1017.3
20260505090557 37 91 0.0 0.0 0.00 0.00 0.00 80 1017.3
20260505090534 37 91 0.0 0.0 0.00 0.00 0.00 79 1017.3
20260505085547 37 91 0.0 0.0 0.00 0.00 0.00 79 1017.4
20260505085045 37 91 0.0 0.0 0.00 0.00 0.00 80 1017.4
20260505084535 37 91 0.0 1.0 0.00 0.00 0.00 80 1017.4
20260505084028 37 91 0.0 1.0 0.00 0.00 0.00 80 1017.4
20260505083523 37 91 0.0 0.0 0.00 0.00 0.00 79 1017.4
20260505083025 37 91 0.0 0.0 0.00 0.00 0.00 80 1017.4
20260505082519 37 91 0.0 1.0 0.00 0.00 0.00 80 1017.5
20260505082018 37 91 0.0 1.0 0.00 0.00 0.00 81 1017.5
20260505081509 37 91 0.0 0.0 0.00 0.00 0.00 81 1017.4
20260505081009 37 91 0.0 1.0 0.00 0.00 0.00 81 1017.4
20260505080509 37 91 0.0 1.0 0.00 0.00 0.00 80 1017.4
20260505080230 37 91 0.0 0.0 0.00 0.00 0.00 81 1017.5
20260505075504 37 91 0.0 0.0 0.00 0.00 0.00 80 1017.5
20260505075004 37 91 0.0 0.0 0.00 0.00 0.00 80 1017.5
20260505074504 37 91 0.0 0.0 0.00 0.00 0.00 80 1017.5
20260505074007 37 91 0.0 1.0 0.00 0.00 0.00 81 1017.5
20260505073502 37 91 0.0 1.0 0.00 0.00 0.00 80 1017.4
20260505073442 37 91 0.0 2.0 0.00 0.00 0.00 80 1017.4
20260505072500 37 91 0.0 2.0 0.00 0.00 0.00 80 1017.4
20260505072000 38 91 0.0 1.0 0.00 0.00 0.00 80 1017.3
20260505071455 38 91 0.0 1.0 0.00 0.00 0.00 79 1017.3
20260505071442 38 91 0.0 2.0 0.00 0.00 0.00 80 1017.3
20260505070702 38 91 0.0 1.0 0.00 0.00 0.00 80 1017.3
20260505065931 38 91 0.0 1.0 0.00 0.00 0.00 80 1017.3
20260505065659 38 91 0.0 0.0 0.00 0.00 0.00 79 1017.3
20260505064932 38 91 0.0 0.0 0.00 0.00 0.00 79 1017.3
20260505064430 38 91 0.0 0.0 0.00 0.00 0.00 79 1017.3
20260505063931 38 91 0.0 1.0 0.00 0.00 0.00 79 1017.2
20260505063426 38 91 0.0 2.0 0.00 0.00 0.00 79 1017.3
20260505062906 38 91 0.0 2.0 0.00 0.00 0.00 79 1017.2
20260505062406 38 91 0.0 0.0 0.00 0.00 0.00 79 1016.9
20260505061904 38 91 0.0 0.0 0.00 0.00 0.00 78 1017.2
20260505061402 39 91 0.0 0.0 0.00 0.00 0.00 78 1017.2
20260505060902 39 91 0.0 0.0 0.00 0.00 0.00 77 1017.2
20260505060357 39 91 0.0 0.0 0.00 0.00 0.00 77 1017.3
20260505055857 39 91 0.0 0.0 0.00 0.00 0.00 77 1017.2
20260505055357 39 91 0.0 0.0 0.00 0.00 0.00 76 1017.0
20260505054853 39 91 0.0 0.0 0.00 0.00 0.00 76 1017.0
20260505054347 39 91 0.0 0.0 0.00 0.00 0.00 76 1017.0
20260505053847 39 91 0.0 1.0 0.00 0.00 0.00 76 1016.9
20260505053348 40 91 0.0 1.0 0.00 0.00 0.00 76 1016.9
20260505052848 40 91 0.0 0.0 0.00 0.00 0.00 76 1016.9
20260505052338 40 91 0.0 0.0 0.00 0.00 0.00 75 1016.9
20260505051829 40 91 0.0 2.0 0.00 0.00 0.00 75 1016.9
20260505051319 40 91 0.0 2.0 0.00 0.00 0.00 76 1016.9
20260505050816 41 91 0.0 1.0 0.00 0.00 0.00 74 1016.9
20260505050259 41 91 0.0 0.0 0.00 0.00 0.00 74 1016.9
20260505041750 43 91 0.0 1.0 0.00 0.00 0.00 71 1016.9
20260505041252 43 91 0.0 1.0 0.00 0.00 0.00 70 1016.8
20260505040748 43 91 0.0 0.0 0.00 0.00 0.00 70 1016.8
20260505040241 44 91 0.0 0.0 0.00 0.00 0.00 69 1016.7
20260505040215 44 91 0.0 0.0 0.00 0.00 0.00 68 1016.7
20260505035230 44 91 0.0 0.0 0.00 0.00 0.00 67 1016.6
20260505034953 45 91 0.0 0.0 0.00 0.00 0.00 66 1016.6
20260505034227 45 91 0.0 0.0 0.00 0.00 0.00 65 1016.6
20260505033726 46 91 0.0 0.0 0.00 0.00 0.00 63 1016.5
20260505033216 47 91 0.0 0.0 0.00 0.00 0.00 62 1016.5
20260505032709 48 91 0.0 0.0 0.00 0.00 0.00 60 1016.3
20260505032200 48 91 0.0 0.0 0.00 0.00 0.00 58 1016.3
20260505031919 49 91 0.0 0.0 0.00 0.00 0.00 57 1016.4
20260505031146 49 91 0.0 0.0 0.00 0.00 0.00 58 1016.4
20260505030637 49 91 0.0 0.0 0.00 0.00 0.00 56 1016.3
20260505030137 49 91 0.0 0.0 0.00 0.00 0.00 55 1016.0
20260505025637 50 91 0.0 2.0 0.00 0.00 0.00 51 1016.2
20260505025357 50 91 0.0 2.0 0.00 0.00 0.00 50 1016.3
20260505024628 50 114 0.0 0.0 0.00 0.00 0.00 51 1016.3
20260505024123 50 114 0.0 0.0 0.00 0.00 0.00 50 1016.2
20260505023622 51 114 0.0 3.0 0.00 0.00 0.00 49 1016.3
20260505023347 51 114 0.0 3.0 0.00 0.00 0.00 49 1016.3
20260505022626 51 142 0.0 2.0 0.00 0.00 0.00 49 1016.3
20260505022121 51 142 0.0 3.0 0.00 0.00 0.00 49 1016.4
20260505021559 51 144 0.0 6.0 0.00 0.00 0.00 49 1016.2
20260505021058 51 143 0.0 6.0 0.00 0.00 0.00 48 1016.3
20260505020555 51 159 2.0 8.0 0.00 0.00 0.00 48 1016.3
20260505020054 52 116 0.0 8.0 0.00 0.00 0.00 49 1016.4
20260505015548 52 111 1.0 4.0 0.00 0.00 0.00 48 1016.4
20260505015039 52 113 0.0 3.0 0.00 0.00 0.00 48 1016.3
20260505014542 52 111 0.0 8.0 0.00 0.00 0.00 49 1016.4
20260505014039 52 110 0.0 8.0 0.00 0.00 0.00 47 1016.4
20260505013747 53 215 2.0 9.0 0.00 0.00 0.00 47 1016.3
20260505013029 53 46 2.0 9.0 0.00 0.00 0.00 47 1016.3
20260505012529 53 88 1.0 8.0 0.00 0.00 0.00 48 1016.3
20260505012029 53 86 0.0 5.0 0.00 0.00 0.00 47 1016.3
20260505011758 53 117 1.0 9.0 0.00 0.00 0.00 48 1016.3
20260505011027 53 119 3.0 9.0 0.00 0.00 0.00 47 1016.3
20260505010525 53 123 1.0 6.0 0.00 0.00 0.00 47 1016.3
20260505010249 53 152 1.0 8.0 0.00 0.00 0.00 48 1016.4
20260505005525 53 110 2.0 10.0 0.00 0.00 0.00 47 1016.3
20260505005025 53 169 3.0 10.0 0.00 0.00 0.00 47 1016.4
20260505004758 53 115 2.0 12.0 0.00 0.00 0.00 46 1016.3
20260505004021 54 90 3.0 12.0 0.00 0.00 0.00 47 1016.4
20260505003521 54 110 2.0 7.0 0.00 0.00 0.00 47 1016.3
20260505003023 54 96 1.0 10.0 0.00 0.00 0.00 47 1016.2
20260505002516 54 99 1.0 11.0 0.00 0.00 0.00 46 1016.3
20260505002237 55 109 2.0 11.0 0.00 0.00 0.00 46 1016.3
20260505001511 55 92 1.0 8.0 0.00 0.00 0.00 46 1016.3
20260505001002 55 159 3.0 8.0 0.00 0.00 0.00 46 1016.3
20260505000502 55 134 1.0 10.0 0.00 0.00 0.00 47 1016.3
20260504235947 55 117 4.0 10.0 0.00 0.00 0.00 46 1016.2
20260504235447 55 222 2.0 8.0 0.00 0.00 0.00 46 1016.0
20260504234947 55 84 0.0 9.0 0.00 0.00 0.00 47 1016.0
20260504234448 55 133 0.0 9.0 0.00 0.00 0.00 47 1016.2
20260504233947 55 295 0.0 7.0 0.00 0.00 0.00 47 1016.0
20260504233707 55 345 1.0 8.0 0.00 0.00 0.00 47 1015.9
20260504232942 55 115 1.0 8.0 0.00 0.00 0.00 46 1015.9
20260504232443 55 101 1.0 6.0 0.00 0.00 0.00 47 1016.0
20260504231943 55 190 1.0 6.0 0.00 0.00 0.00 47 1016.0
20260504231438 55 233 0.0 6.0 0.00 0.00 0.00 47 1016.0
20260504231417 55 102 1.0 10.0 0.00 0.00 0.00 47 1016.0
20260504230433 56 117 4.0 10.0 0.00 0.00 0.00 45 1016.0
20260504225928 56 122 2.0 6.0 0.00 0.00 0.00 45 1016.2
20260504225431 56 119 1.0 7.0 0.00 0.00 0.00 46 1016.0
20260504224929 56 166 0.0 14.0 0.00 0.00 0.00 46 1015.9
20260504224655 56 118 5.0 14.0 0.00 0.00 0.00 46 1015.9
20260504223931 56 214 4.0 9.0 0.00 0.00 0.00 47 1015.9
20260504223429 56 120 3.0 9.0 0.00 0.00 0.00 44 1015.8
20260504223145 57 63 3.0 8.0 0.00 0.00 0.00 45 1015.9
20260504222425 57 279 3.0 8.0 0.00 0.00 0.00 44 1016.0
20260504221925 57 138 1.0 8.0 0.00 0.00 0.00 45 1015.9
20260504221425 58 97 2.0 10.0 0.00 0.00 0.00 44 1015.9
20260504220925 58 81 3.0 12.0 0.00 0.00 0.00 44 1015.9
20260504220426 58 126 2.0 12.0 0.00 0.00 0.00 43 1015.9
20260504215921 59 118 3.0 12.0 0.00 0.00 0.00 42 1015.8
20260504215420 60 148 1.0 12.0 0.00 0.00 0.00 42 1015.9
20260504214916 61 121 2.0 10.0 0.00 0.00 0.00 42 1015.9
20260504214416 61 95 2.0 10.0 0.00 0.00 0.00 40 1015.7
20260504214136 61 52 2.0 14.0 0.00 0.00 0.00 42 1015.6
20260504213416 61 98 3.0 14.0 0.00 0.00 0.00 41 1015.6
20260504212916 61 142 1.0 10.0 0.00 0.00 0.00 43 1015.4
20260504212416 61 124 2.0 9.0 0.00 0.00 0.00 40 1015.5
20260504211911 62 99 2.0 7.0 0.00 0.00 0.00 41 1015.4
20260504211412 61 125 2.0 7.0 0.00 0.00 0.00 42 1015.4
20260504210912 61 99 1.0 8.0 0.00 0.00 0.00 43 1015.4
20260504210412 60 27 2.0 8.0 0.00 0.00 0.00 42 1015.4
20260504210134 61 155 1.0 11.0 0.00 0.00 0.00 41 1015.4
20260504205417 61 34 2.0 11.0 0.00 0.00 0.00 41 1015.4
20260504205127 61 114 2.0 8.0 0.00 0.00 0.00 41 1015.3
20260504204357 61 90 3.0 8.0 0.00 0.00 0.00 40 1015.3
20260504203901 62 209 4.0 9.0 0.00 0.00 0.00 40 1015.3
20260504203400 62 113 3.0 9.0 0.00 0.00 0.00 40 1015.3
20260504202858 62 109 1.0 9.0 0.00 0.00 0.00 40 1015.3
20260504202358 62 91 2.0 11.0 0.00 0.00 0.00 42 1015.3
20260504202353 62 352 4.0 11.0 0.00 0.00 0.00 44 1015.4
20260504201613 62 0 3.0 12.0 0.00 0.00 0.00 41 1015.3
20260504200854 62 214 1.0 12.0 0.00 0.00 0.00 43 1015.1
20260504200841 61 92 2.0 12.0 0.00 0.00 0.00 41 1015.1
20260504195854 61 96 2.0 8.0 0.00 0.00 0.00 42 1015.1
20260504195354 61 30 2.0 12.0 0.00 0.00 0.00 42 1015.3
20260504194850 61 112 1.0 12.0 0.00 0.00 0.00 42 1015.1
20260504194350 61 144 4.0 11.0 0.00 0.00 0.00 40 1015.1
20260504194108 61 98 3.0 11.0 0.00 0.00 0.00 42 1015.1